Regional Weather Roundup
Issued by NWS Grand Forks, ND

Home | Current Version | Previous Version | Graphics & Text | Print | Product List | Glossary On
Versions: 1 2 3 4 5 6 7 8 9 10 11 12 13 14 15 16 17 18 19 20 21 22 23 24 25 26 27 28 29 30 31 32 33 34 35 36 37 38 39 40 41 42 43 44 45 46 47 48 49 50
000
ASUS43 KFGF 220831
RWRFGF
PRAIRIE TO PINES  WEATHER ROUNDUP
NATIONAL WEATHER SERVICE EASTERN NORTH DAKOTA/GRAND FORKS ND
300 AM CDT WED OCT 22 2014

 **SATELLITE DATA USED TO AUGMENT SKY COVER AT AUTOMATED STATIONS**
 *****  WEATHER ACROSS EASTERN NORTH DAKOTA  *****

CITY           SKY/WX    TMP DP  RH WIND       PRES   REMARKS
GRAND FORKS    CLEAR     55  41  59 S22G35    29.83F
GRAND FRKS AFB CLEAR     55  42  63 S24G31    29.81F
GRAND FRKS NWS   N/A     54 N/A N/A S20         N/A
DEVILS LAKE    CLEAR     57  43  58 S22G28    29.69S
FARGO          CLEAR     55  41  59 SE26G36   29.89F
WAHPETON ARPT  MOSUNNY   50  37  62 SE22      29.94S
$$

 ***** WEATHER ACROSS CENTRAL AND WESTERN NORTH DAKOTA  *****

CITY           SKY/WX    TMP DP  RH WIND       PRES   REMARKS
BISMARCK       PTCLDY    65  48  54 S15       29.68R
MINOT          MOCLDY    63  44  50 SE6       29.61R
JAMESTOWN      PTCLDY    61  43  51 S17G29    29.76F
MINOT AFB      PTCLDY    59  50  71 W8        29.59S
GARRISON         N/A     53  47  79 SW6       29.66R
WILLISTON      LGT RAIN  57  47  69 W26       29.65S
DICKINSON      CLEAR     52  44  74 W13       29.70R
HETTINGER      CLEAR     53  42  66 W13       29.75R
$$

 *****  OTHER AIRPORT OBSERVATIONS IN OUR AREA  *****

CITY           SKY/WX    TMP DP  RH WIND       PRES   REMARKS
WALHALLA         N/A     54  41  62 S21G30    29.73F
GRAFTON AIRPOR FAIR      54  41  62 S23G29    29.79F
VALLEY CITY AR FAIR      55  43  62 SE17G24   29.81F
CANDO          FAIR      55  45  67 S20       29.69R
CAVALIER APRT  FAIR      54  41  62 S20G28    29.77S
GWINNER        SUNNY     54  43  66 SE13      29.86F
SHEYENNE NWR     N/A     55  42  61 S16       29.95S
ROLLA          FAIR      54  43  66 S10       29.69S
 ***** THE ABOVE OBSERVATIONS ARE NON NWS ARE NOT QUALITY
       CONTROLLED AND MAY MIS-REPORT RAIN FOR SNOW...
$$

  *****  WEATHER ACROSS NORTHERN MINNESOTA  *****

CITY           SKY/WX    TMP DP  RH WIND       PRES   REMARKS
FLAG ISLAND    CLEAR     46  41  81 S28       29.94S
WARROAD        CLEAR     48  43  81 SE13      29.94S
ROSEAU         CLEAR     50  41  71 S18G28    29.91S
HALLOCK        CLEAR     55  43  62 S25G37    29.81S
THF RVR FALLS  CLEAR     52  39  62 SE16G22   29.91S
BAUDETTE       CLEAR     44  37  76 SE8       30.00S
WASKISH        CLEAR     46  39  76 SE12G28   30.00F
CROOKSTON      CLEAR     54  43  66 S24G31    29.88F
STEPHEN NDAWN    N/A     55  43  62 S22         N/A
GREENBUSH NDAW   N/A     52  41  66 S20         N/A
$$
  *****  WEATHER ACROSS CENTRAL AND WEST MINNESOTA  *****

CITY           SKY/WX    TMP DP  RH WIND       PRES   REMARKS
FOSSTON        CLEAR     48  39  71 SE17G24   29.95S
BEMIDJI        CLEAR     46  38  76 SE12G18   30.02F
PARK RAPIDS    CLEAR     47  39  74 S21       30.04S
ELBOW LAKE     FAIR      50  40  69 SE20G26   29.99S
WADENA         CLEAR     46  39  76 SE14      30.04F
DETROIT LAKES  CLEAR     50  41  71 SE18      29.98F
MOORHEAD       CLEAR     55  45  67 S21G29    29.91S
FERGUS FALLS   CLEAR     52  37  58 SE18G26   29.98F
MORRIS MN      PTCLDY    48  41  76 SE17      30.00F
STAPLES        CLEAR     45  37  76 SE12      30.06F
$$
  *****  WEATHER ELSEWHERE ACROSS MINNESOTA  *****

CITY           SKY/WX    TMP DP  RH WIND       PRES   REMARKS
DULUTH         CLEAR     41  34  76 S9        30.19S
INTRNTL FALLS  CLEAR     41  35  79 SE9G18    30.07S
ELY            CLEAR     37  36  93 S7        30.17F
CLOQUET        CLEAR     36  34  93 E5        30.18S
WHEATON        PTCLDY    48  39  71 SE18G24   29.97S
BRAINERD       CLEAR     44  37  76 S9        30.12R
HIBBING        CLEAR     36  33  89 SE6       30.15S
ALEXANDRIA     CLEAR     48  40  73 SE15      30.06S
SAINT CLOUD    CLEAR     45  37  73 SE6       30.14R
MINNEAPOLIS    CLEAR     42  36  79 SE12      30.19S
$$

  *****  WEATHER ACROSS SOUTH DAKOTA  *****

CITY           SKY/WX    TMP DP  RH WIND       PRES   REMARKS
SIOUX FALLS    CLEAR     53  44  71 SE18      30.02R
BROOKINGS      NOT AVBL
WATERTOWN      CLEAR     53  42  66 S18G29    29.94S
HURON          CLEAR     57  39  51 SE17G29   29.87F
SISSETON         N/A     51  42  71 S14       29.92S
ABERDEEN       CLEAR     62  39  42 S23G35    29.83S
MITCHELL       CLEAR     60  39  45 SE21      29.91S
PIERRE         MOCLDY    61  52  72 SE10      29.76S
MOBRIDGE       MOCLDY    63  51  65 SE12      29.71R
RAPID CITY     CLOUDY    63  42  46 N14       29.82R
$$

  *****  SOME WEATHER IN NEARBY STATES *****

CITY           SKY/WX    TMP DP  RH WIND       PRES   REMARKS
GLASGOW MT     PTCLDY    50  41  71 W16       29.76R
GREAT FALLS MT PTCLDY    42  35  76 SW14      29.92R
CHEYENNE WY    MOCLDY    49  41  74 NW3       30.03F
SCOTTSBLUFF NE LGT RAIN  54  51  90 NW8       29.93F
OMAHA NE       CLOUDY    57  44  62 SE16      30.09R
DES MOINES IA  CLEAR     48  38  68 SE10      30.20R
DAVENPORT IA   CLEAR     36  32  85 E8        30.28R
CHICAGO IL     CLOUDY    47  39  74 CALM      30.27R
EAU CLAIRE WI  CLEAR     39  33  79 S7        30.25S
LA CROSSE WI   CLEAR     39  35  86 SE5       30.28R
$$

  *****  SOME NATIONAL WEATHER *****

CITY           SKY/WX    TMP DP  RH WIND       PRES   REMARKS
LA GUARDIA NY  RAIN      57  55  94 E13       29.88S
RALEIGH NC     PTCLDY    50  40  68 VRB3      29.93S
ATLANTA GA     CLEAR     51  45  79 NW6       30.03S
NEW ORLEANS LA PTCLDY    67  59  75 NE6       30.02S
OKLAHOMA CITY  CLEAR     59  56  89 S5        30.08R
ALBUQUERQUE NM CLOUDY    57  46  66 S5        30.12R
SALT LAKE CITY CLEAR     42  35  76 W3        30.10R
LOS ANGELES CA CLEAR     64  61  90 E5        29.87F
BOISE ID       CLEAR     47  38  71 SE10      30.07S
SEATTLE WA     CLOUDY    57  46  66 SE12      29.72F
$$

*** WEATHER ACROSS MANITOBA...SASKATCHEWAN AND ONTARIO ***
                ***ONTARIO***

CITY           SKY/WX    TMP DP  RH WIND       PRES   REMARKS
GERALDTON      CLEAR     25  25 100 CALM      30.27S
THUNDER BAY    CLEAR     27  27 100 VRB2      30.28F
SIOUX LOOKOUT  CLEAR     39  36  87 S12       30.09S
TORONTO        CLOUDY    41  36  81 N14       30.19S
BIG TROUT LK   CLEAR     39  34  81 S14G20    29.95F
PICKLE LAKE    NOT AVBL
DRYDEN         PTCLDY    39  36  87 S16       30.06F
KENORA         CLEAR     45  37  76 S15       29.98
$$
                *** MANITOBA***

CITY           SKY/WX    TMP DP  RH WIND       PRES   REMARKS
BRANDON        CLEAR     57  45  62 SE10      29.61F
DAUPHIN        CLEAR     45  39  81 CALM      29.59S
ISLAND LAKE    PTCLDY    45  39  81 SE10      29.78F
PILOT MOUND      N/A     55  43  62 S24G31      N/A
THE PAS        CLEAR     45  41  87 SE3       29.57S
THOMPSON       CLEAR     41  39  93 S2        29.61S
WINNIPEG       CLEAR     55  41  58 S26G37    29.76F
LYNN LAKE      CLOUDY    39  39 100 NW6       29.57S
CHURCHILL      FOG       37  37 100 SE2       29.62S VSB 1/4
GILLAM         CLEAR     43  37  81 S9        29.67S
$$
                ***SASKATCHEWAN***

CITY           SKY/WX    TMP DP  RH WIND       PRES   REMARKS
ESTEVAN        PTCLDY    50  43  76 NW8       29.60R
KINDERSLEY     CLOUDY    46  45  93 W6        29.70R
LLOYDMINSTER   NOT AVBL
PRINCE ALBERT  MOCLDY    52  43  71 NW5       29.60R
REGINA         MOCLDY    50  43  76 W6        29.59R
YORKTON        CLEAR     41  39  93 SE2       29.55F
N. BATTLEFORD  MOCLDY    46  45  93 W6        29.68S
LA RONGE       LGT RAIN  48  46  93 W7        29.63S
SASKATOON      MOCLDY    52  43  71 N12G17    29.64R
SWIFT CURRENT  MOCLDY    46  43  87 W12G17    29.68R
$$
NOTE: THESE ARE AUTOMATED STATIONS WITH LIMITED QUALITY CONTROL
      "FAIR" INDICATES FEW OR NO CLOUDS BELOW 12,000 FEET WITH NO
      SIGNIFICANT WEATHER AND/OR OBSTRUCTIONS TO VISIBILITY.
      SKY/WX - SKY CONDITION AND SIGNIFICANT WEATHER.
      TMP - AIR TEMPERATURE.    DP   - DEWPOINT TEMPERATURE.
      RH  - RELATIVE HUMIDITY.  PRES - PRESSURE.
      HX  - HEAT INDEX.         WCI  - WIND CHILL INDEX.
$



USA.gov is the U.S. government's official web portal to all federal, state and local government web resources and services.